Satellite-Ground Cal/Val Region Overpasses Predictions

Prediction of Satellite NPP Overpassing Cal/Val Region: PacNW

Region Location: (Latitude: 10.00, Longitude: 139.50) to (Latitude: 22.70, Longitude: 165.60).

Table of predicted overpasses for the next 14.0 days since TLE Epoch: 11/24/2012
Interval Starting Time Starting Location Ending Time Ending Location
1 11/25/2012 02:08:16 ( 19.48, 165.59) 11/25/2012 02:09:10 ( 22.65, 164.81)
2 11/25/2012 03:47:05 ( 10.03, 142.44) 11/25/2012 03:50:35 ( 22.36, 139.51)
3 11/25/2012 14:37:29 ( 22.65, 165.04) 11/25/2012 14:41:04 ( 10.03, 162.04)
4 11/25/2012 16:18:59 ( 22.64, 139.67) 11/25/2012 16:19:10 ( 22.00, 139.51)
5 11/26/2012 03:28:04 ( 10.06, 147.19) 11/26/2012 03:31:39 ( 22.68, 144.19)
6 11/26/2012 15:59:57 ( 22.68, 144.43) 11/26/2012 16:03:32 ( 10.06, 141.43)
7 11/27/2012 03:09:02 ( 10.02, 151.96) 11/27/2012 03:12:37 ( 22.65, 148.95)
8 11/27/2012 15:40:55 ( 22.65, 149.19) 11/27/2012 15:44:30 ( 10.03, 146.18)
9 11/28/2012 02:50:00 ( 10.05, 156.71) 11/28/2012 02:53:35 ( 22.67, 153.71)
10 11/28/2012 15:21:53 ( 22.68, 153.95) 11/28/2012 15:25:29 ( 10.00, 150.93)
11 11/29/2012 02:30:58 ( 10.02, 161.47) 11/29/2012 02:34:33 ( 22.64, 158.47)
12 11/29/2012 15:02:51 ( 22.65, 158.70) 11/29/2012 15:06:26 ( 10.03, 155.70)
13 11/30/2012 02:12:43 ( 12.81, 165.59) 11/30/2012 02:15:31 ( 22.67, 163.22)
14 11/30/2012 03:53:26 ( 10.06, 140.85) 11/30/2012 03:55:05 ( 15.87, 139.50)
15 11/30/2012 14:43:49 ( 22.68, 163.47) 11/30/2012 14:47:25 ( 10.00, 160.45)
16 12/01/2012 03:34:24 ( 10.03, 145.61) 12/01/2012 03:37:59 ( 22.65, 142.61)
17 12/01/2012 14:27:54 ( 11.68, 165.59) 12/01/2012 14:28:22 ( 10.03, 165.22)
18 12/01/2012 16:06:17 ( 22.64, 142.84) 12/01/2012 16:09:52 ( 10.02, 139.84)
19 12/02/2012 03:15:21 ( 10.01, 150.38) 12/02/2012 03:18:57 ( 22.69, 147.36)
20 12/02/2012 15:47:15 ( 22.67, 147.61) 12/02/2012 15:50:50 ( 10.05, 144.60)
21 12/03/2012 02:56:20 ( 10.04, 155.13) 12/03/2012 02:59:55 ( 22.66, 152.13)
22 12/03/2012 15:28:12 ( 22.69, 152.37) 12/03/2012 15:31:48 ( 10.01, 149.35)
23 12/04/2012 02:37:17 ( 10.02, 159.89) 12/04/2012 02:40:53 ( 22.70, 156.88)
24 12/04/2012 15:09:11 ( 22.65, 157.12) 12/04/2012 15:12:46 ( 10.03, 154.12)
25 12/05/2012 02:18:16 ( 10.06, 164.64) 12/05/2012 02:21:51 ( 22.68, 161.64)
26 12/05/2012 14:50:09 ( 22.67, 161.88) 12/05/2012 14:53:44 ( 10.05, 158.88)
27 12/06/2012 03:40:43 ( 10.05, 144.03) 12/06/2012 03:44:18 ( 22.67, 141.03)
28 12/06/2012 14:32:19 ( 18.41, 165.60) 12/06/2012 14:34:42 ( 10.01, 163.63)
29 12/06/2012 16:12:36 ( 22.68, 141.27) 12/06/2012 16:14:40 ( 15.41, 139.51)
30 12/07/2012 03:21:41 ( 10.03, 148.79) 12/07/2012 03:25:16 ( 22.65, 145.79)
31 12/07/2012 15:53:35 ( 22.64, 146.02) 12/07/2012 15:57:10 ( 10.02, 143.02)
32 12/08/2012 03:02:38 ( 10.01, 153.56) 12/08/2012 03:06:14 ( 22.69, 150.54)


NCC Satellite Cal/Val Overpasses Prediction Service
